Location: St. Louis
(38.6270°N, 90.1994°W)
Time: 10:56:18
(UTC-06:00)

S-56A Canister/Altair - Pass Details

Date: 01 December 2021
Orbit: 634 x 2499 km, 38.9° (Epoch: 26 January)

Event Time Altitude Azimuth Distance (km) Brightness Sun altitude
Rises 04:47:25 0° 281° (W) 3,563 - -25.3°
Reaches altitude 10° 04:50:18 10° 279° (W) 2,409 - -24.8°
Exits shadow 04:55:14 63° 226° (SW) 764 7.2 -23.8°
Maximum altitude 04:55:36 66° 198° (SSW) 740 7.3 -23.8°
Drops below altitude 10° 04:59:59 10° 116° (ESE) 2,009 10.7 -22.9°
Sets 05:02:13 0° 113° (ESE) 2,917 11.9 -22.5°
